Location: Brownlee
(50.7397°N, 106.0159°W)
Time: 02:44:35
(UTC+00:00)

Tiangong - Pass Details

Date: 05 December 2022
Orbit: 382 x 386 km, 41.5° (Epoch: 05 February)

Event Time Altitude Azimuth Distance (km) Brightness Sun altitude
Rises 01:43:49 0° 246° (WSW) 2,251 2.9 -24.8°
Reaches altitude 10° 01:46:28 10° 223° (SW) 1,399 1.3 -25.2°
Enters shadow 01:47:14 13° 210° (SSW) 1,232 0.8 -25.3°
